Regional Weather Roundup
Issued by NWS

Home | Current Version | Previous Version | Graphics & Text | Print | Product List | Glossary On
Versions: 1 2 3 4 5 6 7 8 9 10 11 12 13 14 15 16 17 18 19 20 21 22 23 24 25 26 27 28 29 30 31 32 33 34 35 36 37 38 39 40 41 42 43 44 45 46 47 48 49 50
519
ASUS43 KFSD 071510
RWRSD

WEATHER ROUNDUP FOR SOUTH DAKOTA
NATIONAL WEATHER SERVICE SIOUX FALLS SD
900 AM CST SUN FEB 07 2016

NOTE: "FAIR" INDICATES FEW OR NO CLOUDS BELOW 12,000 FEET WITH NO
SIGNIFICANT WEATHER AND/OR OBSTRUCTIONS TO VISIBILITY.


SDZ001>005-009-010-012>017-071600-
NORTHWEST AND NORTH CENTRAL SOUTH DAKOTA

CITY           SKY/WX    TMP DP  RH WIND       PRES   REMARKS
BUFFALO          N/A     33  13  43 NW45G60   29.98R WCI  17
FAITH            N/A     33  14  45 NW39G53   29.97R WCI  17
MOBRIDGE       FLURRIES  34  27  75 NW28G43   29.83R WCI  21
$$

SDZ012>016-024>037-041>051-057-063-072>074-071600-
SOUTHWEST AND SOUTH CENTRAL SOUTH DAKOTA

CITY           SKY/WX    TMP DP  RH WIND       PRES   REMARKS
RAPID CTY ARPT CLEAR     35  11  36 NW49G59   30.11S WCI  19
PIERRE         MOCLDY    38  18  44 NW35G45   29.92S
CUSTER         CLEAR     24   3  40 NW22G35   30.09R WCI   9
ELLSWORTH AFB  CLEAR     34  11  38 NW45G55   30.07F WCI  18
PHILIP         PTCLDY    37  18  46 W33G46    30.03F
PINE RIDGE     CLEAR     32  16  51 NW8       30.17R WCI  25
SPEARFISH      MIX PCPN  30  10  43 NW30G47   30.15S WCI  15
WINNER         FAIR      37  20  50 W21G36    29.99F
$$

SDZ004>011-016>023-039-040-071600-
NORTHEAST SOUTH DAKOTA

CITY           SKY/WX    TMP DP  RH WIND       PRES   REMARKS
ABERDEEN       PTSUNNY   37  24  59 W26G32    29.77F
WATERTOWN      MOSUNNY   34  24  67 W22G30    29.73F WCI  22
BROOKINGS      MOSUNNY   35  26  69 W24G30    29.77S WCI  23
SISSETON         N/A     36  25  64 NW21G32   29.68S
$$

SDZ017-020-022-023-036>040-048>070-071600-
SOUTHEAST SOUTH DAKOTA

CITY           SKY/WX    TMP DP  RH WIND       PRES   REMARKS
SIOUX FALLS    CLOUDY    35  26  69 W16G23    29.84S WCI  25
HURON          SUNNY     36  26  67 W23       29.85F
CHAMBERLAIN    SUNNY     34  24  65 W21G26    29.95F WCI  23
MITCHELL       MOSUNNY   37  28  70 W18       29.90S
YANKTON        CLOUDY    37  27  65 W23       29.93S
$$

ABBREVIATIONS USED IN REMARKS
   TC - TEMPERATURE IN CELSIUS
  WCI - WIND CHILL INDEX
   HX - HEAT INDEX
  VSB - VISIBILITY





USA.gov is the U.S. government's official web portal to all federal, state and local government web resources and services.